Everett, WA

11:55 PM PST on November 16, 2019 (GMT -0800)
Snohomish County

Weather History for KPAE - August, 2019

Change the Weather History Date:

Friday, August 16, 2019

  Actual Average Record
Temperature  
Mean Temperature 63 °F -  
Max Temperature 71 °F 72 °F 87 °F (2010)
Min Temperature 57 °F 53 °F 46 °F (1982)
Degree Days  
Heating Degree Days 2    
Growing Degree Days 13 (Base 50)    
Moisture  
Dew Point 54 °F    
Average Humidity 75    
Maximum Humidity 84    
Minimum Humidity 61    
Precipitation  
Precipitation 0.00 in - - ()
Sea Level Pressure  
Sea Level Pressure 30.11 in    
Wind  
Wind Speed 6 mph (South)    
Max Wind Speed 13 mph    
Max Gust Speed 20 mph    
Visibility 10 miles    
Events      
Averages and records for this station are not official NWS values.
T = Trace of Precipitation, MM = Missing Value Source: NWS Daily Summary

Daily Weather History Graph

Daily Weather History Graph

Search for Another Location

Airport or City:

Astronomy

Aug. 16, 2019 Rise Set
Actual Time 6:05 AM PDT 8:20 PM PDT
Civil Twilight 5:31 AM PDT 8:54 PM PDT
Nautical Twilight 4:48 AM PDT 9:36 PM PDT
Astronomical Twilight 4:00 AM PDT 10:24 PM PDT
Moon 9:19 PM PDT (8/16) 7:02 AM PDT (8/16)
Length of Visible Light 15h 23m
Length of Day
14h 15m
Full, 99% of the Moon is Illuminated
Aug 16
Full
Aug 23
Last Quarter
Aug 30
New
Sep 5
First Quarter
Sep 13
Full

Hourly Weather History & Observations

Time (PDT) Temp. Dew Point Humidity Pressure Visibility Wind Dir Wind Speed Gust Speed Precip Events Conditions
12:53 AM 59.0 °F 53.1 °F 81% 30.13 in 10.0 mi North 4.6 mph - N/A   Clear
1:53 AM 59.0 °F 53.1 °F 81% 30.13 in 10.0 mi NNE 8.1 mph - N/A   Overcast
2:53 AM 57.9 °F 53.1 °F 84% 30.13 in 10.0 mi NNE 8.1 mph - N/A   Overcast
3:53 AM 57.9 °F 53.1 °F 84% 30.13 in 10.0 mi ENE 5.8 mph - N/A   Overcast
4:08 AM 57.9 °F 53.1 °F 84% 30.13 in 10.0 mi ENE 6.9 mph - N/A   Overcast
4:38 AM 57.9 °F 52.0 °F 81% 30.14 in 10.0 mi East 5.8 mph - N/A   Mostly Cloudy
4:48 AM 57.2 °F 51.8 °F 82% 30.14 in 10.0 mi East 4.6 mph - N/A   Mostly Cloudy
4:53 AM 57.9 °F 52.0 °F 81% 30.14 in 10.0 mi East 5.8 mph - N/A   Mostly Cloudy
5:48 AM 57.2 °F 51.8 °F 82% 30.14 in 10.0 mi ENE 3.5 mph - N/A   Overcast
5:53 AM 57.0 °F 52.0 °F 83% 30.13 in 10.0 mi East 3.5 mph - N/A   Overcast
6:24 AM 57.9 °F 53.1 °F 84% 30.13 in 10.0 mi SSE 3.5 mph - N/A   Overcast
6:53 AM 57.9 °F 52.0 °F 81% 30.14 in 10.0 mi East 3.5 mph - N/A   Overcast
7:53 AM 60.1 °F 53.1 °F 78% 30.15 in 10.0 mi South 4.6 mph - N/A   Mostly Cloudy
8:29 AM 59.0 °F 53.1 °F 81% 30.15 in 10.0 mi South 6.9 mph - N/A   Overcast
8:53 AM 60.1 °F 54.0 °F 80% 30.15 in 10.0 mi South 8.1 mph - N/A   Overcast
9:53 AM 62.1 °F 54.0 °F 75% 30.14 in 10.0 mi South 8.1 mph - N/A   Overcast
10:00 AM 63.0 °F 54.0 °F 72% 30.14 in 10.0 mi South 9.2 mph - N/A   Overcast
10:53 AM 63.0 °F 53.1 °F 70% 30.14 in 10.0 mi South 5.8 mph - N/A   Overcast
11:53 AM 64.0 °F 54.0 °F 70% 30.13 in 10.0 mi WSW 8.1 mph - N/A   Overcast
12:53 PM 66.0 °F 55.0 °F 68% 30.12 in 10.0 mi WSW 8.1 mph - N/A   Mostly Cloudy
1:53 PM 68.0 °F 55.0 °F 63% 30.11 in 10.0 mi West 8.1 mph - N/A   Mostly Cloudy
2:53 PM 69.1 °F 55.0 °F 61% 30.10 in 10.0 mi South 12.7 mph 19.6 mph N/A   Mostly Cloudy
3:30 PM 66.9 °F 55.0 °F 66% 30.09 in 10.0 mi South 11.5 mph 18.4 mph N/A   Mostly Cloudy
3:53 PM 68.0 °F 55.0 °F 63% 30.09 in 10.0 mi Variable 6.9 mph - N/A   Overcast
4:53 PM 66.0 °F 55.0 °F 68% 30.08 in 10.0 mi SW 6.9 mph - N/A   Overcast
5:53 PM 66.9 °F 55.9 °F 68% 30.07 in 10.0 mi WSW 5.8 mph - N/A   Overcast
6:53 PM 66.0 °F 55.9 °F 70% 30.06 in 10.0 mi SW 4.6 mph - N/A   Overcast
7:00 PM 66.0 °F 55.9 °F 70% 30.06 in 10.0 mi SW 5.8 mph - N/A   Overcast
7:53 PM 64.9 °F 55.9 °F 73% 30.05 in 10.0 mi WSW 5.8 mph - N/A   Overcast
8:53 PM 64.0 °F 55.9 °F 75% 30.05 in 10.0 mi SW 4.6 mph - N/A   Overcast
9:53 PM 64.0 °F 55.9 °F 75% 30.04 in 10.0 mi SSW 4.6 mph - N/A   Overcast
10:53 PM 63.0 °F 55.0 °F 75% 30.04 in 10.0 mi SSW 3.5 mph - N/A   Scattered Clouds
11:53 PM 63.0 °F 55.0 °F 75% 30.04 in 10.0 mi SSW 3.5 mph - N/A   Overcast